Location: Alincthun
(50.7310°N, 1.8022°E)
Time: 05:58:05
(UTC+00:00)

CZ-4C R/B - Pass Details

Date: 17 February 2020
Orbit: 641 x 1361 km, 63.4° (Epoch: 09 April)

Event Time Altitude Azimuth Distance (km) Brightness Sun altitude
Exits shadow 03:29:41 48° 59° (ENE) 1,102 3.0 -33.7°
Drops below altitude 10° 03:34:14 10° 46° (NE) 2,679 5.5 -33.1°
Sets 03:37:03 0° 45° (NE) 3,749 6.5 -32.7°
